Weather History for KLSV - February, 2013

Change the Weather History Date:

Tuesday, February 19, 2013

  Actual Average (KLAS) Record (KLAS)
Temperature  
Mean Temperature 50 °F 54 °F  
Max Temperature 64 °F 63 °F 82 °F (1981)
Min Temperature 36 °F 44 °F 25 °F (1952)
Degree Days  
Heating Degree Days 15 11  
Month to date heating degree days 249  
Since 1 July heating degree days 1601  
Cooling Degree Days 0 0  
Month to date cooling degree days 0  
Year to date cooling degree days 0  
Moisture  
Dew Point 22 °F    
Average Humidity 34    
Maximum Humidity 48    
Minimum Humidity 19    
Precipitation  
Precipitation 0.00 in 0.03 in 0.23 in (1938)
Month to date precipitation 0.49  
Year to date precipitation 1.03  
Snow  
Snow 0.00 in 0.00 in 1.40 in (1990)
Month to date snowfall 0.1  
Since 1 July snowfall 0.3  
Snow Depth -    
Sea Level Pressure  
Sea Level Pressure 29.66 in    
Wind  
Wind Speed 7 mph (SSW)    
Max Wind Speed 24 mph    
Max Gust Speed 30 mph    
Visibility 10 miles    
Events      
T = Trace of Precipitation, MM = Missing Value Source: NWS Daily Summary

Daily Weather History Graph

Daily Weather History Graph

Search for Another Location

Airport or City:

Trip Planner

Search our weather history database for the weather conditions in past years. The results will help you decide how hot, cold, wet, or windy it might be!

Date:

Astronomy

Feb. 19, 2013 Rise Set
Actual Time 6:22 AM PST 5:25 PM PST
Civil Twilight 5:56 AM PST 5:51 PM PST
Nautical Twilight 5:26 AM PST 6:21 PM PST
Astronomical Twilight 4:56 AM PST 6:51 PM PST
Moon 12:05 PM PST (2/19) 1:52 AM PST (2/19)
Length of Visible Light 11h 55m
Length of Day
11h 02m
Waxing Gibbous, 68% of the Moon is Illuminated
Feb 19
Waxing Gibbous
Feb 25
Full
Mar 4
Last Quarter
Mar 11
New
Mar 19
First Quarter

Hourly Weather History & Observations

Time (PST) Temp. Windchill Dew Point Humidity Pressure Visibility Wind Dir Wind Speed Gust Speed Precip Events Conditions
12:58 AM 46.4 °F 44.3 °F 16.7 °F 31% 29.84 in 10.0 mi East 4.6 mph - N/A   Clear
1:58 AM 45.0 °F - 17.4 °F 33% 29.82 in 10.0 mi South 2.3 mph - N/A   Clear
2:58 AM 41.7 °F - 19.0 °F 40% 29.80 in 10.0 mi Calm Calm - N/A   Clear
3:58 AM 40.5 °F - 17.4 °F 39% 29.78 in 10.0 mi NNE 2.3 mph - N/A   Clear
4:58 AM 37.8 °F - 17.2 °F 43% 29.77 in 10.0 mi SW 2.3 mph - N/A   Clear
5:58 AM 37.8 °F - 18.1 °F 45% 29.78 in 10.0 mi Calm Calm - N/A   Clear
6:58 AM 36.3 °F 32.5 °F 18.5 °F 48% 29.78 in 10.0 mi South 4.6 mph - N/A   Clear
7:58 AM 42.3 °F - 21.4 °F 43% 29.79 in 10.0 mi Calm Calm - N/A   Clear
8:58 AM 48.9 °F - 20.8 °F 33% 29.75 in 10.0 mi Calm Calm - N/A   Clear
9:58 AM 53.6 °F - 21.4 °F 28% 29.72 in 10.0 mi WSW 2.3 mph - N/A   Clear
10:58 AM 57.7 °F - 22.5 °F 26% 29.70 in 10.0 mi East 8.1 mph - N/A   Clear
11:55 AM 60.8 °F - 23.0 °F 23% 29.66 in 10.0 mi Variable 5.8 mph - N/A   Clear
12:55 PM 62.6 °F - 23.0 °F 22% 29.60 in 10.0 mi Variable 3.5 mph - N/A   Clear
1:41 PM 64.4 °F - 21.2 °F 19% 29.58 in 10.0 mi SW 18.4 mph 20.7 mph N/A   Clear
1:55 PM 64.4 °F - 21.2 °F 19% 29.58 in 10.0 mi SSW 10.4 mph - N/A   Clear
2:58 PM 63.1 °F - 22.8 °F 21% 29.54 in 10.0 mi SW 20.7 mph - N/A   Clear
4:58 PM 57.4 °F - 23.5 °F 27% 29.55 in 10.0 mi SW 24.2 mph 29.9 mph N/A   Mostly Cloudy
5:58 PM 55.8 °F - 25.9 °F 32% 29.56 in 10.0 mi SW 23.0 mph - N/A   Partly Cloudy
6:55 PM 55.4 °F - 26.6 °F 33% 29.56 in 10.0 mi SW 23.0 mph - N/A   Clear
7:55 PM 53.6 °F - 26.6 °F 35% 29.59 in 10.0 mi SW 24.2 mph - N/A   Partly Cloudy
8:55 PM 51.8 °F - 28.4 °F 41% 29.58 in 10.0 mi South 17.3 mph 24.2 mph N/A   Partly Cloudy
9:55 PM 51.8 °F - 28.4 °F 41% 29.55 in 10.0 mi SSW 17.3 mph - N/A   Overcast
10:58 PM 50.7 °F - 28.0 °F 42% 29.52 in 10.0 mi SSW 16.1 mph - N/A   Mostly Cloudy
11:58 PM 50.0 °F - 27.3 °F 41% 29.54 in 10.0 mi South 12.7 mph - N/A   Partly Cloudy